(340817) = 2003 FD70 = 2006 UE80

Discovered at Mount Lemmon on 2006-10-17 by Mt. Lemmon Survey.

Orbit

Orbit type: Main Belt

Note: WebGL enabled browser required.

epoch2023-09-13.0
epoch JD2460200.5
perihelion date2019-04-16.36028
perihelion JD2458589.86028
argument of perihelion (°)61.85318
ascending node (°)49.71139
inclination (°)10.44327
eccentricity0.0855070
perihelion distance (AU)2.9293357
Tisserand w.r.t. Jupiter3.2
ΔV w.r.t. Earth (km/sec)11.1
semimajor axis (AU)3.2032347
mean anomaly (°)276.89754
mean daily motion (°/day)0.17191770
aphelion distance (AU)3.477
period (years)5.73
P-vector [x]-0.35640793
P-vector [y]0.78102121
P-vector [z]0.51281504
Q-vector [x]-0.92404323
Q-vector [y]-0.37586892
Q-vector [z]-0.06976148
absolute magnitude15.93
phase slope0.15
uncertainty0
referenceMPEC 2023-Y18
observations used236
oppositions12
arc length (days)7569
first opposition used2003
last opposition used2023
residual rms (arc-secs)0.76
perturbers coarse indicatorM-v
perturbers precise indicator003Ek
first observation date used2003-03-26.0
last observation date used2023-12-15.0
computer nameMPCLINUX
JD of orbit computation2456700.338823
perihelion JD uncertainty (days)6.9289E-04
argument of perihelion uncertainty (°)1.3734E-04
ascending node uncertainty (°)3.5514E-05
inclination uncertainty (°)1.2354E-05
eccentricity uncertainty 5.9586E-08
perihelion distance uncertainty (AU)2.1292E-07
Minimum Orbit Intersection Distances (in AU)
for orbit epoch: 2460200.5, reference: E2023-Y18
Mercury2.60782
Venus2.21812
Earth1.96279
Mars1.33186
Jupiter1.73058
Saturn6.09588
Uranus15.4015
Neptune26.6245

Observations

240 total observations over interval: 2003 03 26.38966 – 2023 12 15.274774
These data are available for download (format description).

Date (UT) J2000 RA J2000 Dec Magn Location Ref
2003 03 26.38966 12 52 04.59 +05 38 10.2 20.7 V 691 – Steward Observatory, Kitt Peak-Spacewatch MPS 76376
2003 03 26.41765 12 52 03.27 +05 38 15.7 20.1 V 691 – Steward Observatory, Kitt Peak-Spacewatch MPS 76376
2003 03 26.44820 12 52 01.77 +05 38 20.5 20.4 V 691 – Steward Observatory, Kitt Peak-Spacewatch MPS 76376
2003 03 27.22881 12 51 24.84 +05 40 39.5 21.2   644 – Palomar Mountain/NEAT MPS 76376
2003 03 27.31036 12 51 20.83 +05 40 53.8 21.1   644 – Palomar Mountain/NEAT MPS 76376
2003 03 27.37958 12 51 17.41 +05 41 06.3 21.1   644 – Palomar Mountain/NEAT MPS 76376
2003 04 09.20705 12 40 59.48 +06 11 37.3 21.0 V 691 – Steward Observatory, Kitt Peak-Spacewatch MPS 212027
2003 04 09.23365 12 40 58.17 +06 11 39.4 21.0 V 691 – Steward Observatory, Kitt Peak-Spacewatch MPS 212027
2003 04 09.26109 12 40 56.83 +06 11 42.4 20.9 V 691 – Steward Observatory, Kitt Peak-Spacewatch MPS 212027
2006 10 03.37264 02 33 27.10 +09 47 07.1 20.8 V G96 – Mt. Lemmon Survey MPS 186557
2006 10 03.37919 02 33 26.85 +09 47 06.6 20.5 V G96 – Mt. Lemmon Survey MPS 186557
2006 10 03.38615 02 33 26.60 +09 47 06.1 20.3 V G96 – Mt. Lemmon Survey MPS 186557
2006 10 03.39264 02 33 26.35 +09 47 05.6 20.4 V G96 – Mt. Lemmon Survey MPS 186557
2006 10 17.27042 02 23 49.09 +09 27 53.1 20.8 V G96 – Mt. Lemmon Survey MPS 184309
2006 10 17.27716 02 23 48.76 +09 27 52.5 21.1 V G96 – Mt. Lemmon Survey MPS 184309
2006 10 17.28385 02 23 48.48 +09 27 52.7 20.1 V G96 – Mt. Lemmon Survey MPS 184309
2006 10 17.29058 02 23 48.19 +09 27 51.9 20.2 V G96 – Mt. Lemmon Survey MPS 184309
2006 10 22.20594 02 19 49.93 +09 20 05.9 20.4 V 691 – Steward Observatory, Kitt Peak-Spacewatch MPS 184309
2006 10 22.22329 02 19 49.07 +09 20 04.5 20.3 V 691 – Steward Observatory, Kitt Peak-Spacewatch MPS 184309
2006 10 22.24065 02 19 48.17 +09 20 03.0 20.3 V 691 – Steward Observatory, Kitt Peak-Spacewatch MPS 184309
2006 11 10.14326 02 04 01.82 +08 54 29.4 20.8 V 691 – Steward Observatory, Kitt Peak-Spacewatch MPS 212027
2006 11 10.15872 02 04 01.06 +08 54 29.0 20.9 V 691 – Steward Observatory, Kitt Peak-Spacewatch MPS 212027
2006 11 10.17419 02 04 00.30 +08 54 28.4 20.9 V 691 – Steward Observatory, Kitt Peak-Spacewatch MPS 212027
2008 01 11.32545 08 54 06.55 +32 46 40.4 21.0 V 703 – Catalina Sky Survey MPS 233435
2008 01 11.33441 08 54 06.19 +32 46 44.5 20.1 V 703 – Catalina Sky Survey MPS 233435
2008 01 11.34332 08 54 05.79 +32 46 46.4 21.3 V 703 – Catalina Sky Survey MPS 233435
2008 01 11.35222 08 54 05.36 +32 46 50.8 21.0 V 703 – Catalina Sky Survey MPS 233435
2009 03 29.36145 14 24 17.50 -08 29 25.5   691 – Steward Observatory, Kitt Peak-Spacewatch MPS 282591
2009 03 29.37913 14 24 16.78 -08 29 23.7   691 – Steward Observatory, Kitt Peak-Spacewatch MPS 282591
2009 03 29.39682 14 24 16.13 -08 29 22.5   691 – Steward Observatory, Kitt Peak-Spacewatch MPS 282591
2009 04 21.39513 14 07 13.29 -07 50 29.6 20.2 V G96 – Mt. Lemmon Survey MPS 284427
2009 04 21.40272 14 07 12.93 -07 50 29.2 19.9 V G96 – Mt. Lemmon Survey MPS 284427
2009 04 21.41021 14 07 12.54 -07 50 28.2 20.2 V G96 – Mt. Lemmon Survey MPS 284427
2009 04 21.41777 14 07 12.18 -07 50 27.6 20.1 V G96 – Mt. Lemmon Survey MPS 284427
2012 10 09.46253 04 13 55.70 +21 30 28.1 20.3 V G96 – Mt. Lemmon Survey MPS 435129
2012 10 09.47094 04 13 55.59 +21 30 29.4 20.4 V G96 – Mt. Lemmon Survey MPS 435129
2012 10 09.47957 04 13 55.45 +21 30 30.3 20.5 V G96 – Mt. Lemmon Survey MPS 435129
2012 10 09.48826 04 13 55.30 +21 30 31.8 20.6 V G96 – Mt. Lemmon Survey MPS 435129
2012 10 14.41672 04 12 32.67 +21 41 25.9 20.8 V 691 – Steward Observatory, Kitt Peak-Spacewatch MPS 435129
2012 10 14.43448 04 12 32.27 +21 41 28.3 20.4 V 691 – Steward Observatory, Kitt Peak-Spacewatch MPS 435129
2012 10 14.45219 04 12 31.82 +21 41 29.7 20.6 V 691 – Steward Observatory, Kitt Peak-Spacewatch MPS 435129
2012 11 05.21023 03 59 41.95 +22 16 28.8 20.1 V 691 – Steward Observatory, Kitt Peak-Spacewatch MPS 441628
2012 11 05.23140 03 59 40.92 +22 16 30.1 20.5 V 691 – Steward Observatory, Kitt Peak-Spacewatch MPS 441628
2012 11 05.24909 03 59 39.99 +22 16 31.5 20.3 V 691 – Steward Observatory, Kitt Peak-Spacewatch MPS 441628
2012 11 06.533715 03 58 37.087 +22 17 50.54 20.0 i F51 – Pan-STARRS 1, Haleakala MPS 441628
2012 11 06.546845 03 58 36.417 +22 17 51.27 19.9 i F51 – Pan-STARRS 1, Haleakala MPS 441628
2012 11 17.16368 03 49 14.24 +22 25 11.8   691 – Steward Observatory, Kitt Peak-Spacewatch MPS 444824
2012 11 17.17902 03 49 13.36 +22 25 12.3   691 – Steward Observatory, Kitt Peak-Spacewatch MPS 444824
2012 11 17.19435 03 49 12.52 +22 25 13.0   691 – Steward Observatory, Kitt Peak-Spacewatch MPS 444824
2012 12 09.07860 03 29 43.54 +22 26 22.0 20.2 V G96 – Mt. Lemmon Survey MPS 447699
2012 12 09.08389 03 29 43.29 +22 26 21.9 20.0 V G96 – Mt. Lemmon Survey MPS 447699
2012 12 09.08919 03 29 43.04 +22 26 21.5 19.9 V G96 – Mt. Lemmon Survey MPS 447699
2012 12 09.09450 03 29 42.79 +22 26 21.6 19.9 V G96 – Mt. Lemmon Survey MPS 447699
2014 01 25.62127 10 59 57.477 +22 22 47.49 20.4 r F51 – Pan-STARRS 1, Haleakala MPS 500141
2014 01 25.63271 10 59 57.160 +22 22 51.13 20.5 r F51 – Pan-STARRS 1, Haleakala MPS 500141
2015 04 20.40538 15 38 04.15 -19 10 55.4 20.7 V 691 – Steward Observatory, Kitt Peak-Spacewatch MPS 603000
2015 04 20.42422 15 38 03.40 -19 10 55.5 21.0 V 691 – Steward Observatory, Kitt Peak-Spacewatch MPS 603000
2015 04 20.44307 15 38 02.60 -19 10 55.9 21.2 V 691 – Steward Observatory, Kitt Peak-Spacewatch MPS 603000
2015 04 23.51351 15 35 57.053 -19 11 29.95 20.7 w F52 – Pan-STARRS 2, Haleakala MPS 603000
2015 04 23.52726 15 35 56.447 -19 11 30.20 20.6 w F52 – Pan-STARRS 2, Haleakala MPS 603000
2015 04 23.54097 15 35 55.850 -19 11 30.28 20.6 w F52 – Pan-STARRS 2, Haleakala MPS 603000
2015 04 23.55467 15 35 55.241 -19 11 30.33 20.7 w F52 – Pan-STARRS 2, Haleakala MPS 603000
2015 05 12.34232 15 20 52.79 -19 06 20.6 20.2 V G96 – Mt. Lemmon Survey MPS 607188
2015 05 12.34691 15 20 52.54 -19 06 20.4 20.3 V G96 – Mt. Lemmon Survey MPS 607188
2015 05 12.35149 15 20 52.31 -19 06 20.3 20.2 V G96 – Mt. Lemmon Survey MPS 607188
2015 05 12.35610 15 20 52.06 -19 06 20.2 20.3 V G96 – Mt. Lemmon Survey MPS 607188
2015 05 20.12379 15 14 17.19 -19 01 11.6 20.5 V W84 – Cerro Tololo-DECam MPS 789820
2015 05 20.12696 15 14 17.03 -19 01 11.5   W84 – Cerro Tololo-DECam MPS 789820
2015 05 20.13015 15 14 16.86 -19 01 11.3   W84 – Cerro Tololo-DECam MPS 789820
2015 05 20.13332 15 14 16.69 -19 01 11.2   W84 – Cerro Tololo-DECam MPS 789820
2015 05 20.13651 15 14 16.54 -19 01 11.1   W84 – Cerro Tololo-DECam MPS 789820
2015 05 21.12378 15 13 27.34 -19 00 29.5 20.6 V W84 – Cerro Tololo-DECam MPS 789820
2015 05 21.12693 15 13 27.18 -19 00 29.4   W84 – Cerro Tololo-DECam MPS 789820
2015 05 21.13016 15 13 27.01 -19 00 29.3   W84 – Cerro Tololo-DECam MPS 789820
2015 05 21.13338 15 13 26.84 -19 00 29.2   W84 – Cerro Tololo-DECam MPS 789820
2015 05 21.13655 15 13 26.68 -19 00 29.0   W84 – Cerro Tololo-DECam MPS 789820
2015 05 22.20412 15 12 33.80 -18 59 44.0 20.7 V W84 – Cerro Tololo-DECam MPS 789820
2015 05 22.20734 15 12 33.63 -18 59 43.9   W84 – Cerro Tololo-DECam MPS 789820
2015 05 22.21060 15 12 33.47 -18 59 43.7   W84 – Cerro Tololo-DECam MPS 789820
2015 05 22.21385 15 12 33.30 -18 59 43.6   W84 – Cerro Tololo-DECam MPS 789820
2015 05 22.21706 15 12 33.14 -18 59 43.4   W84 – Cerro Tololo-DECam MPS 789820
2015 05 23.05358 15 11 52.36 -18 59 07.9 20.7 V W84 – Cerro Tololo-DECam MPS 789820
2015 05 23.05676 15 11 52.20 -18 59 07.7   W84 – Cerro Tololo-DECam MPS 789820
2015 05 23.05990 15 11 52.04 -18 59 07.6   W84 – Cerro Tololo-DECam MPS 789820
2015 05 23.06307 15 11 51.88 -18 59 07.6   W84 – Cerro Tololo-DECam MPS 789820
2015 05 23.06628 15 11 51.73 -18 59 07.4   W84 – Cerro Tololo-DECam MPS 789820
2015 05 24.41745 15 10 46.037 -18 58 13.77 20.6 w F51 – Pan-STARRS 1, Haleakala MPS 609732
2015 05 24.42896 15 10 45.472 -18 58 13.24 20.6 w F51 – Pan-STARRS 1, Haleakala MPS 609732
2015 05 24.44045 15 10 44.894 -18 58 12.69 20.4 w F51 – Pan-STARRS 1, Haleakala MPS 609732
2015 06 18.30163 14 55 00.591 -18 48 23.76 21.1 w F51 – Pan-STARRS 1, Haleakala MPS 612484
